Weather History for Morgantown, WV

Change the Weather History Date:

Sunday, December 30, 2012

  Actual Average Record
Temperature  
Mean Temperature 27 °F 32 °F  
Max Temperature 30 °F 39 °F 67 °F (1971)
Min Temperature 24 °F 24 °F 3 °F (1983)
Degree Days  
Heating Degree Days 38 33  
Month to date heating degree days 701 904  
Since 1 July heating degree days 1822 1952  
Cooling Degree Days 0 0  
Month to date cooling degree days 0 0  
Year to date cooling degree days 1141 814  
Moisture  
Dew Point 23 °F    
Average Humidity 81    
Maximum Humidity 92    
Minimum Humidity 69    
Precipitation  
Precipitation T in 0.09 in 1.38 in (1990)
Month to date precipitation 5.22 2.83  
Year to date precipitation 35.69 41.75  
Sea Level Pressure  
Sea Level Pressure 30.23 in    
Wind  
Wind Speed 8 mph (WSW)    
Max Wind Speed 14 mph    
Max Gust Speed 25 mph    
Visibility 6 miles    
Events Snow    
T = Trace of Precipitation, MM = Missing Value Source: NWS Daily Summary

Daily Weather History Graph

Daily Weather History Graph

Search for Another Location

Airport:

Trip Planner

Search our weather history database for the weather conditions in past years. The results will help you decide how hot, cold, wet, or windy it might be!

Date:

Astronomy

Dec. 30, 2012 Rise Set
Actual Time 7:40 AM EST 5:04 PM EST
Civil Twilight 7:09 AM EST 5:35 PM EST
Nautical Twilight 6:36 AM EST 6:08 PM EST
Astronomical Twilight 6:03 AM EST 6:41 PM EST
Moon 7:33 PM EST (12/30) 8:48 AM EST (12/30)
Length of Visible Light 10h 25m
Length of Day
9h 24m
Waning Gibbous, 95% of the Moon is Illuminated
Dec 30
Waning Gibbous
Jan 4
Last Quarter
Jan 11
New
Jan 18
First Quarter
Jan 26
Full

Hourly Weather History & Observations

Time (EST) Temp. Windchill Dew Point Humidity Pressure Visibility Wind Dir Wind Speed Gust Speed Precip Events Conditions
12:01 AM 30.2 °F 23.4 °F 26.6 °F 86% 29.94 in 3.0 mi West 6.9 mph - 0.00 in Snow Light Snow
12:17 AM 30.2 °F 23.4 °F 26.6 °F 86% 29.94 in 2.5 mi West 6.9 mph 16.1 mph 0.00 in Snow Light Snow
12:53 AM 28.9 °F 21.9 °F 26.1 °F 89% 29.99 in 2.0 mi West 6.9 mph 16.1 mph 0.00 in Snow Light Snow
1:21 AM 28.4 °F 19.7 °F 26.6 °F 93% 29.97 in 3.0 mi West 9.2 mph 17.3 mph 0.00 in   Overcast
1:50 AM 28.4 °F 20.4 °F 24.8 °F 86% 29.99 in 3.0 mi West 8.1 mph - 0.00 in Snow Light Snow
1:53 AM 28.9 °F 20.4 °F 26.1 °F 89% 30.03 in 3.0 mi West 9.2 mph - 0.00 in Snow Light Snow
2:02 AM 28.4 °F 19.7 °F 24.8 °F 86% 30.00 in 2.5 mi WNW 9.2 mph - 0.00 in Snow Light Snow
2:25 AM 28.4 °F 20.4 °F 26.6 °F 93% 30.02 in 1.5 mi WNW 8.1 mph - 0.00 in Snow Light Snow
2:53 AM 28.9 °F 21.1 °F 26.1 °F 89% 30.08 in 2.5 mi West 8.1 mph - 0.00 in Snow Light Snow
3:02 AM 28.4 °F 21.2 °F 24.8 °F 86% 30.05 in 2.5 mi West 6.9 mph - 0.00 in Snow Light Snow
3:07 AM 28.4 °F 20.4 °F 24.8 °F 86% 30.05 in 3.0 mi West 8.1 mph - 0.00 in   Overcast
3:11 AM 28.4 °F 22.2 °F 24.8 °F 86% 30.05 in 2.5 mi West 5.8 mph - 0.00 in Snow Light Snow
3:31 AM 28.4 °F 20.4 °F 24.8 °F 86% 30.06 in 2.0 mi West 8.1 mph - 0.00 in Snow Light Snow
3:49 AM 28.4 °F 20.4 °F 24.8 °F 86% 30.07 in 4.0 mi WNW 8.1 mph 18.4 mph 0.00 in Snow Light Snow
3:53 AM 28.0 °F 19.3 °F 24.1 °F 85% 30.11 in 4.0 mi WNW 9.2 mph 18.4 mph 0.00 in   Overcast
4:53 AM 28.9 °F 21.1 °F 21.9 °F 75% 30.15 in 10.0 mi WNW 8.1 mph 18.4 mph N/A   Overcast
5:53 AM 28.9 °F 21.9 °F 21.9 °F 75% 30.18 in 10.0 mi WNW 6.9 mph - N/A   Overcast
6:53 AM 28.0 °F 18.6 °F 21.0 °F 75% 30.25 in 10.0 mi West 10.4 mph 23.0 mph N/A   Overcast
7:53 AM 28.0 °F 19.3 °F 19.9 °F 72% 30.28 in 10.0 mi WNW 9.2 mph - N/A   Overcast
8:53 AM 28.0 °F 24.2 °F 21.9 °F 78% 30.31 in 6.0 mi Variable 3.5 mph - N/A   Haze
9:02 AM 28.4 °F 23.3 °F 21.2 °F 74% 30.28 in 1.8 mi Variable 4.6 mph - 0.00 in Snow Light Snow
9:26 AM 28.4 °F 21.2 °F 23.0 °F 80% 30.29 in 2.5 mi WSW 6.9 mph - 0.00 in Snow Light Snow
9:53 AM 28.0 °F 21.7 °F 23.0 °F 81% 30.35 in 1.5 mi WSW 5.8 mph - 0.00 in Snow Light Snow
10:08 AM 28.4 °F 22.2 °F 24.8 °F 86% 30.31 in 2.5 mi Variable 5.8 mph - 0.00 in Snow Light Snow
10:17 AM 28.4 °F 18.0 °F 23.0 °F 80% 30.31 in 3.0 mi SW 12.7 mph - 0.00 in Snow Light Snow
10:53 AM 28.0 °F 17.5 °F 23.0 °F 81% 30.37 in 3.0 mi SW 12.7 mph - 0.00 in Snow Light Snow
11:16 AM 28.4 °F 19.7 °F 23.0 °F 80% 30.32 in 4.0 mi SW 9.2 mph - 0.00 in Snow Light Snow
11:53 AM 28.0 °F 20.0 °F 21.9 °F 78% 30.36 in 7.0 mi SW 8.1 mph - 0.00 in Snow Light Snow
12:32 PM 28.4 °F 17.5 °F 21.2 °F 74% 30.31 in 4.0 mi WSW 13.8 mph - 0.00 in Snow Light Snow
12:53 PM 28.0 °F 18.1 °F 21.9 °F 78% 30.35 in 5.0 mi WSW 11.5 mph 20.7 mph 0.00 in Snow Light Snow
1:53 PM 27.0 °F 19.5 °F 21.9 °F 81% 30.36 in 8.0 mi WSW 6.9 mph 16.1 mph 0.00 in Snow Light Snow
2:25 PM 28.4 °F 18.0 °F 21.2 °F 74% 30.32 in 9.0 mi West 12.7 mph 19.6 mph 0.00 in Snow Light Snow
2:53 PM 28.0 °F 17.5 °F 21.0 °F 75% 30.37 in 9.0 mi West 12.7 mph 19.6 mph 0.00 in Snow Light Snow
3:53 PM 27.0 °F 20.5 °F 21.0 °F 78% 30.40 in 6.0 mi SW 5.8 mph - 0.00 in   Haze
4:17 PM 26.6 °F 19.1 °F 19.4 °F 74% 30.36 in 10.0 mi Variable 6.9 mph - N/A   Overcast
4:39 PM 26.6 °F 20.0 °F 21.2 °F 80% 30.36 in 4.0 mi SW 5.8 mph - N/A   Haze
4:53 PM 27.0 °F 19.5 °F 21.0 °F 78% 30.40 in 5.0 mi SW 6.9 mph - N/A   Haze
5:53 PM 27.0 °F 20.5 °F 19.9 °F 75% 30.39 in 10.0 mi SW 5.8 mph - N/A   Overcast
6:53 PM 27.0 °F 21.6 °F 19.9 °F 75% 30.40 in 10.0 mi SW 4.6 mph - N/A   Overcast
7:53 PM 27.0 °F 18.7 °F 19.9 °F 75% 30.40 in 10.0 mi SW 8.1 mph - N/A   Overcast
8:53 PM 27.0 °F 19.5 °F 19.9 °F 75% 30.42 in 10.0 mi SW 6.9 mph - N/A   Overcast
9:53 PM 26.1 °F 18.4 °F 19.0 °F 75% 30.42 in 10.0 mi SW 6.9 mph 17.3 mph N/A   Overcast
10:53 PM 26.1 °F 20.5 °F 19.0 °F 75% 30.40 in 10.0 mi Variable 4.6 mph - N/A   Overcast
11:19 PM 24.8 °F 20.5 °F 19.4 °F 80% 30.34 in 10.0 mi Variable 3.5 mph - N/A   Scattered Clouds
11:53 PM 24.1 °F 17.0 °F 19.0 °F 81% 30.38 in 10.0 mi SSW 5.8 mph - N/A   Clear